Regional Weather Roundup
Issued by NWS

Home | Current Version | Previous Version | Graphics & Text | Print | Product List | Glossary On
Versions: 1 2 3 4 5 6 7 8 9 10 11 12 13 14 15 16 17 18 19 20 21 22 23 24 25 26 27 28 29 30 31 32 33 34 35 36 37 38 39 40 41 42 43 44 45 46 47 48 49 50
000
ASUS43 KTOP 190459
RWRKS

WEATHER ROUNDUP FOR KANSAS
NATIONAL WEATHER SERVICE GOODLAND KS
1200 AM CDT TUE SEP 19 2017

NOTE:  "FAIR" INDICATES FEW OR NO CLOUDS BELOW 12,000 FEET WITH NO
SIGNIFICANT WEATHER AND/OR OBSTRUCTIONS TO VISIBILITY.

KSZ001>006-013>018-027>032-041>047-190600-
NORTHWEST KANSAS

CITY           SKY/WX    TMP DP  RH WIND       PRES   REMARKS
GOODLAND       CLEAR     60  51  72 SE9       29.88S
HAYS           CLEAR     69  61  75 S8        29.87S
HILL CITY      CLEAR     66  59  78 E6        29.86S
RUSSELL        CLEAR     72  62  71 S12       29.85F
$$

KSZ061>065-074>080-084>089-190600-
SOUTHWEST KANSAS

CITY           SKY/WX    TMP DP  RH WIND       PRES   REMARKS
DODGE CITY     CLEAR     70  63  78 S12       29.90S
ELKHART          N/A     63  61  94 S9          N/A
GARDEN CITY    CLEAR     67  62  84 SE10      29.88F
GREAT BEND     CLEAR     68  62  81 S7        29.88S
LIBERAL        CLEAR     69  66  90 S13       29.90S
$$

KSZ066>073-081>083-090>101-190600-
SOUTHEAST KANSAS

CITY           SKY/WX    TMP DP  RH WIND       PRES   REMARKS
CHANUTE        MOCLDY    71  66  84 S8        29.93S
COFFEYVILLE    CLEAR     71  66  84 SE5       29.92F
HUTCHINSON     PTCLDY    71  66  84 S8        29.89R
MEDICINE LODGE   N/A     72  66  81 S9        29.89S
NEWTON         CLOUDY    72  65  78 S13       29.90F
WICHITA INTL   MOCLDY    74  67  78 S13       29.89S
WICHITA JABRA  MOCLDY    74  67  78 S13       29.90S
WINFIELD       CLEAR     72  68  87 S10       29.92S
$$

KSZ007>012-019>026-033>040-048>060-102>105-190600-
NORTHEAST KANSAS

CITY           SKY/WX    TMP DP  RH WIND       PRES   REMARKS
CONCORDIA      CLEAR     67  65  93 SE8       29.86F
EMPORIA        PTCLDY    69  65  86 SE9       29.91F
LAWRENCE       CLEAR     67  67 100 E3        29.91F
MANHATTAN      CLEAR     70  66  87 CALM      29.88S
OLATHE IND     CLEAR     68  66  93 SE7       29.93F
OLATHE EXE     PTCLDY    66  66 100 SE3       29.94S FOG
SALINA         CLEAR     73  64  73 S10       29.87R
TOPEKA BILLARD CLEAR     68  68 100 E5        29.90F
TOPEKA FORBES  CLEAR     69  67  93 SE6       29.91
$$




USA.gov is the U.S. government's official web portal to all federal, state and local government web resources and services.